Regional Weather Roundup
Issued by NWS

Home | Current Version | Previous Version | Graphics & Text | Print | Product List | Glossary On
Versions: 1 2 3 4 5 6 7 8 9 10 11 12 13 14 15 16 17 18 19 20 21 22 23 24 25 26 27 28 29 30 31 32 33 34 35 36 37 38 39 40 41 42 43 44 45 46 47 48 49 50
000
ASUS43 KIND 221209
RWRIN

WEATHER ROUNDUP FOR INDIANA
NATIONAL WEATHER SERVICE INDIANAPOLIS IN
800 AM EDT WED OCT 22 2014

NOTE: "FAIR" INDICATES FEW OR NO CLOUDS BELOW 12,000 FEET WITH NO
SIGNIFICANT WEATHER AND/OR OBSTRUCTIONS TO VISIBILITY.

* - STATION DOES NOT REPORT WEATHER SUCH AS PRECIPITATION OR FOG.

+ - STATION NOT QUALITY CONTROLLED BY THE NATIONAL WEATHER SERVICE.
    USE DATA WITH CAUTION...ESPECIALLY DEWPOINT AND RELATIVE
    HUMIDITY OBSERVATIONS.

INZ001>003-010>013-019-020-221300-
NORTHWEST INDIANA

CITY           SKY/WX    TMP DP  RH WIND       PRES   REMARKS
GARY /AIRPORT/ PTCLDY    36  34  93 CALM      30.34R
KNOX *+        CLEAR     30  29  96 CALM      30.33R
LA PORTE +     PTCLDY    32  32 100 CALM      30.34R
6HR MIN TEMP:  32; 6HR MAX TEMP:  38;

MICHIGAN CITY+ CLEAR     32  32 100 CALM      30.34R FOG
MONTICELLO +   CLEAR     37  35  94 NE3       30.31R
RENSSELAER +   CLEAR     36  36 100 NE5       30.33R
VALPARAISO     CLEAR     32  31  96 NE3       30.34R
6HR MIN TEMP:  32; 6HR MAX TEMP:  38;


$$

LMZ046-743>745-221300-
SOUTHERN LAKE MICHIGAN

STATION/POSITION TIME  TEMP WIND        PRES
                       AIR  DIR/SP/G
                 (UTC) (F)  (DEG/KT/KT) (MB)
MICHIGAN CITY    1200   39  100/  8/ 10   N/A

$$

INZ004-005-014>016-021>024-221300-
NORTH CENTRAL INDIANA

CITY           SKY/WX    TMP DP  RH WIND       PRES   REMARKS
ELKHART        PTCLDY    32  30  93 CALM      30.34R
GOSHEN         CLEAR     35  32  88 N5        30.33R WCI  31
6HR MIN TEMP:  32; 6HR MAX TEMP:  37;

LOGANSPORT +   CLEAR     36  32  87 N3        30.32S
PERU/GRISSOM   CLEAR     33  33 100 NE6       30.30S FOG     WCI  28
6HR MIN TEMP:  33; 6HR MAX TEMP:  42;

ROCHESTER +    CLEAR     36  36 100 N3        30.32S
SOUTH BEND     CLEAR     32  29  88 CALM      30.34R
6HR MIN TEMP:  30; 6HR MAX TEMP:  38;

WARSAW +       CLEAR     32  32 100 NE5       30.32S WCI  27

$$

INZ006>009-017-018-025>027-221300-
NORTHEAST INDIANA

CITY           SKY/WX    TMP DP  RH WIND       PRES   REMARKS
ANGOLA *+        N/A     36  21  55 CALM      30.31S
AUBURN +       CLEAR     37  34  87 N3        30.32R
FORT WAYNE     MOCLDY    40  37  89 N6        30.31R
6HR MIN TEMP:  36; 6HR MAX TEMP:  40;

HUNTINGTON +   CLOUDY    38  37  93 N5        30.31R
6HR MIN TEMP:  35; 6HR MAX TEMP:  40;


$$

INZ028-029-035-036-043>045-051>053-221300-
WEST CENTRAL INDIANA

CITY           SKY/WX    TMP DP  RH WIND       PRES   REMARKS
GREENCASTLE +  CLEAR     36  34  93 NE3       30.29S
LAFAYETTE      CLEAR     34  34 100 N3        30.31R
6HR MIN TEMP:  33; 6HR MAX TEMP:  38;

TERRE HAUTE    CLEAR     36  34  92 NE5       30.30R
6HR MIN TEMP:  35; 6HR MAX TEMP:  43;


$$

INZ030>032-037>040-046>048-054>057-064-065-221300-
CENTRAL INDIANA

CITY           SKY/WX    TMP DP  RH WIND       PRES   REMARKS
ANDERSON       CLOUDY    39  36  87 NW6       30.30
CP ATTERBURY + MOCLDY    36  34  93 N5        30.30R
COLUMBUS       CLEAR     36  36 100 MISG      30.30R
FRANKFORT +    CLEAR     36  36 100 NE3       30.31S
INDIANAPOLIS   PTCLDY    38  34  85 N7        30.28S
6HR MIN TEMP:  38; 6HR MAX TEMP:  45;

-EAGLE CREEK   CLEAR     38  34  85 CALM      30.29R
6HR MIN TEMP:  38; 6HR MAX TEMP:  46;

KOKOMO *+      CLEAR     36  32  87 N3        30.32R
MARION +       MOCLDY    37  34  89 NE3       30.31R
MT COMFORT *+  MOCLDY    36  36 100 N5        30.29S
SHELBYVILLE    CLOUDY    44  38  79 N6        30.28R
6HR MIN TEMP:  40; 6HR MAX TEMP:  47;

ZIONSVILLE +   CLEAR     35  32  89 N5        30.30R WCI  31
6HR MIN TEMP:  35; 6HR MAX TEMP:  40;


$$

INZ033-034-041-042-049-050-058-059-221300-
EAST CENTRAL INDIANA

CITY           SKY/WX    TMP DP  RH WIND       PRES   REMARKS
MUNCIE         CLOUDY    42  37  82 N7        30.29R
6HR MIN TEMP:  39; 6HR MAX TEMP:  44;


$$

INZ060-061-067>069-081>083-085>088-221300-
SOUTHWEST INDIANA

CITY           SKY/WX    TMP DP  RH WIND       PRES   REMARKS
EVANSVILLE     CLEAR     43  40  89 N5        30.28R
6HR MIN TEMP:  42; 6HR MAX TEMP:  48;

HUNTINGBURG *+ CLEAR     39  36  87 NE3       30.28R
6HR MIN TEMP:  39; 6HR MAX TEMP:  43;

WASHINGTON +   CLEAR     38  38 100 CALM      30.28R
6HR MIN TEMP:  37; 6HR MAX TEMP:  44;


$$

INZ062-063-066-070>080-084-089>092-221300-
SOUTH CENTRAL AND SOUTHEAST INDIANA

CITY           SKY/WX    TMP DP  RH WIND       PRES   REMARKS
BEDFORD +      CLEAR     39  36  87 CALM      30.28
BLOOMINGTON    CLEAR     39  36  89 NE7       30.28R
6HR MIN TEMP:  34; 6HR MAX TEMP:  43;


$$




USA.gov is the U.S. government's official web portal to all federal, state and local government web resources and services.